Theta_e
310 309 307 308 307 307 308 308 307 308 308 308 306 305 306 307 308 309 310 310 311 312 310 310 310 311 315 316 315 313 312 311 308 307 305 303 301 304 305 303 302 303 305 307
308 308 308 308 308 308 308 308 307 307 307 307 306 307 308 307 306 309 309 309 310 309 309 310 311 312 314 314 313 311 311 309 307 306 304 302 301 305 304 303 303 304 306 307
308 308 307 308 308 309 307 307 307 308 308 307 307 307 311 312 311 310 310 310 309 309 308 309 311 312 313 312 310 310 309 307 307 304 303 301 303 305 304 304 304 304 306 307
309 308 307 307 308 307 308 307 308 308 307 308 308 308 307 311 311 308 308 308 308 307 308 309 310 311 311 310 310 308 307 307 305 304 303 301 305 306 303 303 304 304 306 307
308 306 306 307 307 306 307 308 307 308 308 309 308 307 308 309 310 310 307 307 308 308 308 309 309 310 310 309 308 307 307 306 304 304 301 301 305 305 303 303 304 305 306 307
307 307 307 307 306 306 307 310 311 310 309 304 308 307 308 310 310 310 307 307 308 308 309 309 310 310 310 309 308 307 307 305 304 303 301 302 305 305 304 305 304 305 307 307
307 307 306 306 306 307 309 308 305 305 300 306 307 308 308 311 309 309 307 307 308 308 309 309 309 309 309 308 307 307 307 305 305 303 300 302 305 305 305 306 306 305 306 307
306 305 306 305 307 306 308 309 307 307 310 313 306 307 308 309 308 308 307 308 308 308 308 308 309 309 308 308 307 307 306 305 305 303 300 302 305 306 305 306 306 306 306 307
308 310 305 305 305 306 307 308 309 307 301 307 310 309 311 306 304 304 305 307 307 307 308 308 308 308 308 307 307 307 306 306 306 304 301 302 304 306 306 306 306 307 307 307
311 310 304 305 305 305 305 306 307 306 307 309 309 311 311 307 306 306 304 304 306 307 307 307 307 307 307 307 307 307 307 306 306 305 302 301 304 307 307 307 307 307 307 308
310 310 305 304 304 305 305 305 307 308 311 313 312 312 308 307 306 306 306 307 307 305 306 306 307 307 307 307 307 307 307 306 306 306 305 301 303 307 307 307 307 307 308 308
311 309 307 305 305 304 304 306 307 310 309 308 312 311 308 306 306 307 307 308 309 308 306 305 305 306 307 307 307 307 306 306 306 305 305 302 303 305 307 307 307 308 308 308
310 309 308 308 306 302 305 305 307 310 308 306 311 310 306 306 306 309 308 308 308 307 307 306 305 305 305 305 306 306 306 306 305 305 305 303 302 304 307 308 308 309 309 309
308 307 309 314 309 305 304 306 307 309 309 310 308 309 308 306 307 307 307 308 308 309 308 308 307 305 304 304 304 304 305 306 305 305 304 304 302 304 307 308 309 310 310 310
306 305 300 302 305 305 305 306 306 305 308 311 310 307 309 307 305 307 307 309 309 309 308 307 307 307 306 305 304 304 304 305 305 305 304 304 301 303 306 308 309 310 311 310
306 304 301 302 300 304 305 305 305 303 301 302 302 305 308 307 307 307 308 309 308 307 306 305 306 306 307 307 306 305 304 303 304 305 304 303 302 302 304 307 308 309 310 310
306 303 305 306 298 301 303 304 304 305 304 307 306 308 305 305 306 307 308 308 308 308 307 305 304 305 306 307 307 307 306 303 303 304 304 303 302 302 304 306 308 309 310 309
305 305 306 300 298 302 304 304 304 305 305 304 305 305 306 306 307 308 308 308 307 307 307 307 307 304 305 306 307 307 306 305 302 302 303 303 303 301 304 306 307 311 308 309
306 306 306 304 300 304 306 305 304 305 305 304 304 306 306 306 306 305 307 307 305 306 307 307 308 309 305 304 306 306 305 304 302 302 302 302 302 301 303 307 308 308 308 309
306 306 306 304 300 303 304 304 305 305 308 306 304 305 305 306 307 303 305 304 303 304 306 307 306 306 309 308 304 305 305 304 302 301 301 302 302 301 302 307 310 308 309 310
307 305 305 298 297 302 305 303 306 306 307 305 305 305 305 305 306 305 301 301 301 302 302 302 302 303 305 306 308 307 305 305 304 302 301 301 302 303 302 306 311 309 309 311
307 307 304 298 298 305 303 304 306 305 306 307 307 305 305 307 305 300 299 299 299 300 300 300 300 301 301 302 304 308 309 305 305 304 301 301 301 301 301 306 310 310 309 310
303 303 304 305 305 304 304 305 306 308 308 307 307 305 307 303 299 298 298 298 298 299 300 300 300 300 300 299 300 303 306 308 306 304 302 300 300 300 300 304 309 309 310 310
302 300 302 303 303 301 305 306 308 308 308 307 306 307 305 300 299 298 298 298 299 300 301 301 300 299 299 299 299 298 302 305 307 308 303 301 301 300 300 301 306 310 309 310
298 299 296 298 300 302 304 307 307 307 307 307 306 305 302 299 298 298 297 298 299 300 300 299 298 298 298 297 298 297 297 300 304 306 307 303 301 300 300 300 302 308 310 310
296 297 300 301 300 302 303 305 307 307 306 305 303 300 299 299 298 298 298 298 298 299 298 298 297 297 297 297 296 296 295 296 298 303 306 306 302 301 300 299 300 304 307 310
Wind_Speed
6 4 9 13 9 5 4 2 2 1 2 3 6 10 16 17 15 22 19 12 15 12 16 16 13 12 15 16 14 13 13 10 7 6 5 7 8 5 5 5 3 5 8 9
3 10 9 9 7 8 4 2 4 3 3 1 6 14 18 11 7 13 12 19 18 20 18 16 14 14 16 15 13 13 12 9 7 5 4 7 6 4 4 3 2 6 8 7
7 4 11 7 5 8 5 5 3 3 2 3 4 9 5 3 6 12 10 13 12 16 19 18 16 15 16 14 12 12 10 8 5 4 4 5 3 2 1 2 3 5 6 6
5 4 6 5 5 5 4 4 5 3 3 3 2 4 6 2 2 3 9 11 9 12 14 17 19 18 15 13 12 12 9 6 5 4 4 4 3 1 2 2 3 3 5 5
7 6 6 4 4 6 5 1 5 3 3 3 3 2 7 2 4 1 4 9 11 9 13 17 18 17 15 14 12 11 8 6 5 4 4 3 3 2 1 1 2 3 4 4
2 1 0 4 3 4 7 6 8 5 3 1 6 6 5 2 1 2 4 12 13 13 12 14 16 16 16 15 13 11 8 6 5 4 3 3 3 3 2 1 2 2 2 2
2 1 0 3 6 6 4 5 3 3 3 5 4 3 7 3 1 1 6 13 13 14 15 17 19 19 17 15 14 11 8 6 5 4 3 3 4 4 4 2 1 1 1 0
7 3 8 4 4 7 6 5 5 7 4 3 4 6 4 1 3 5 7 12 12 13 15 16 18 17 16 15 14 11 8 7 5 4 3 3 5 5 5 3 1 1 1 0
6 3 2 4 2 4 6 4 4 6 2 3 4 4 3 4 6 8 9 10 8 10 14 14 16 16 16 15 13 11 8 7 5 5 4 3 5 5 4 3 2 2 3 2
5 4 3 2 1 1 2 3 3 2 3 3 4 3 4 3 4 5 6 6 4 8 10 12 14 15 15 13 13 12 10 7 6 5 4 3 5 6 4 3 3 3 3 2
4 4 3 1 5 7 3 2 2 4 4 5 2 5 4 8 7 7 5 6 6 2 6 9 11 12 11 12 13 13 11 10 7 6 4 4 6 7 5 4 4 4 4 3
7 4 4 5 2 1 0 5 5 4 5 1 3 4 5 8 7 10 5 5 4 4 2 5 7 10 12 13 13 14 13 12 9 7 6 5 6 8 8 7 5 5 4 3
11 5 4 2 3 3 4 5 4 3 3 5 5 4 3 7 6 5 5 5 5 3 3 1 5 9 11 13 14 15 16 15 13 11 8 7 6 8 9 8 6 6 6 5
9 5 6 10 5 7 6 8 6 4 3 4 5 4 6 8 7 4 2 2 3 5 5 4 2 6 10 12 12 15 16 17 16 14 10 8 7 7 10 9 7 6 7 6
5 4 3 2 3 5 5 8 17 11 11 7 6 7 10 9 8 9 5 2 2 4 5 6 5 4 6 10 13 14 15 16 17 16 12 9 8 8 11 10 8 7 8 8
3 3 4 3 4 4 2 4 10 6 3 2 3 4 5 10 17 12 8 6 4 4 6 6 6 6 7 7 9 13 15 16 16 16 13 12 10 9 11 11 10 9 8 9
6 6 3 2 2 2 5 9 8 6 4 12 7 9 6 6 10 16 13 10 8 6 7 9 9 6 6 7 8 10 13 15 16 15 13 13 11 9 11 12 11 9 8 10
7 6 2 3 1 1 5 2 8 6 7 7 4 7 7 12 16 14 13 13 10 9 10 12 14 13 9 8 8 7 10 13 15 15 13 12 12 10 10 12 11 11 10 11
5 6 4 5 3 3 1 4 8 8 9 13 11 7 16 26 22 11 12 13 13 12 13 15 16 17 18 15 12 8 2 9 12 14 13 12 12 11 11 12 9 10 11 11
8 5 4 3 6 9 5 5 11 5 5 8 21 13 17 18 4 4 14 14 15 15 15 16 18 20 20 22 22 15 9 2 6 12 12 12 12 11 12 11 9 10 12 13
7 2 7 4 2 6 5 8 13 6 5 4 21 24 26 7 6 25 20 19 18 18 18 18 19 22 23 23 22 22 18 9 3 7 12 13 13 12 12 12 11 12 13 15
8 7 4 3 3 7 11 5 11 6 7 14 20 24 25 21 34 29 23 20 18 18 18 18 19 21 22 22 22 22 21 19 12 3 7 12 14 12 12 13 13 14 16 17
3 5 7 8 6 2 25 6 12 16 22 20 25 30 32 38 34 29 24 20 18 17 17 17 18 19 21 21 22 21 22 20 19 14 4 10 16 15 13 15 15 16 19 19
3 2 4 5 3 4 15 11 16 17 24 23 31 36 38 36 31 28 23 20 17 15 13 12 12 15 18 20 20 20 19 19 19 17 12 6 12 15 16 16 17 17 19 21
4 6 6 1 2 6 7 14 18 22 24 26 32 35 36 34 28 25 22 18 14 11 8 7 10 11 13 16 18 19 18 17 17 17 15 10 7 13 17 18 18 19 19 19
5 6 4 4 12 5 12 19 21 25 29 31 35 32 29 29 28 22 19 14 10 6 3 4 8 10 12 13 17 19 19 17 16 15 14 14 10 9 14 18 20 22 20 22
Wind_Direction
196 141 205 199 193 152 98 171 306 96 247 240 248 277 277 280 265 266 266 182 153 160 173 180 193 205 201 206 206 209 208 210 216 239 270 296 320 326 354 352 342 40 55 46
92 230 209 195 205 228 261 204 255 283 177 229 309 293 286 285 251 268 229 159 151 144 160 172 185 196 202 203 203 200 198 201 211 243 283 309 317 317 343 337 12 42 47 48
171 231 187 191 186 187 194 177 207 216 313 270 14 292 312 7 103 90 137 157 158 167 170 175 181 191 196 201 194 193 196 197 217 245 294 306 291 288 313 313 21 37 48 50
243 246 144 154 192 140 180 214 186 132 71 233 124 276 307 270 102 102 125 147 164 171 173 177 179 187 197 195 190 193 193 198 225 252 295 301 268 275 299 348 17 43 54 45
228 176 153 140 185 154 210 47 136 119 142 43 285 98 267 233 47 168 186 153 167 181 181 177 180 184 188 195 195 196 197 205 227 263 295 299 264 260 270 303 84 72 63 71
142 242 154 138 87 141 146 74 41 48 73 11 232 163 278 277 159 96 127 161 164 177 181 180 180 186 190 195 200 202 204 213 228 263 289 274 239 243 216 221 102 74 75 109
109 189 138 152 86 19 88 93 20 2 5 219 319 127 252 268 227 131 196 167 167 174 184 187 191 195 196 200 203 206 209 212 228 255 279 264 234 230 223 227 64 129 21 333
149 242 176 194 176 173 171 160 159 198 194 230 350 224 259 4 327 120 96 164 165 180 192 201 205 204 201 204 206 209 214 216 230 254 271 249 232 227 229 230 227 226 177 105
143 189 356 47 45 131 183 176 170 104 41 68 209 265 288 45 49 57 96 148 176 188 197 208 208 212 206 206 209 214 220 222 232 254 265 251 227 226 238 230 226 238 210 161
171 98 337 9 202 43 152 170 98 346 141 225 284 231 222 152 113 78 57 77 158 196 199 211 216 217 210 210 213 219 224 227 235 247 263 263 228 226 218 221 196 207 213 197
117 102 292 48 208 177 150 176 213 128 154 166 176 252 218 161 160 133 107 77 72 162 212 213 216 217 219 219 222 226 231 234 234 237 251 259 235 219 211 208 193 201 237 233
178 99 155 202 256 356 17 195 171 141 239 238 143 262 144 146 147 126 98 60 61 70 107 204 220 228 232 231 231 235 238 241 239 238 244 250 244 223 211 213 209 214 242 226
167 171 109 36 339 358 210 208 204 126 88 193 145 241 170 135 133 110 48 44 44 35 43 126 207 231 245 247 244 242 243 246 245 243 242 243 244 226 213 221 218 231 239 235
140 146 174 198 178 143 182 194 191 145 143 176 213 165 190 183 154 160 80 61 29 11 1 351 265 239 243 248 250 250 245 243 245 246 243 243 245 228 216 219 222 230 245 233
150 139 103 345 37 122 151 176 184 189 194 178 208 185 207 188 179 182 154 129 58 357 336 330 311 279 247 247 252 249 244 240 242 245 242 239 240 234 219 217 225 234 241 234
161 130 116 14 1 54 129 203 198 197 169 106 95 276 207 133 152 158 155 134 88 39 20 359 328 300 278 263 256 248 246 243 242 240 236 234 234 239 226 218 227 236 241 223
133 131 123 211 351 57 322 203 181 175 191 199 182 212 160 145 152 161 150 142 118 77 54 44 30 8 332 302 278 259 243 234 235 238 231 233 228 234 231 221 227 237 229 220
127 104 75 151 38 174 253 243 182 160 205 194 136 177 193 157 146 141 148 137 115 89 68 54 48 41 34 12 339 288 234 223 226 231 232 228 234 225 231 225 229 228 235 206
148 120 126 141 197 284 241 172 152 170 240 200 190 172 133 128 118 94 126 125 108 94 78 64 54 46 42 40 36 28 260 208 214 221 226 223 228 235 227 229 235 232 206 199
135 97 124 151 143 208 229 213 170 122 268 186 182 168 154 150 134 184 145 128 113 102 90 77 63 56 51 45 41 38 40 1 229 216 215 219 219 226 226 231 225 217 197 187
145 110 167 169 168 280 238 158 143 129 237 157 171 166 164 164 169 149 141 123 110 97 85 74 64 55 50 47 45 41 35 27 352 251 224 203 216 227 221 215 223 213 201 189
159 151 175 107 110 252 169 121 166 194 139 147 161 163 154 146 139 140 136 124 112 100 88 71 58 52 45 40 38 40 37 31 21 334 234 227 204 210 228 217 215 215 212 201
182 173 160 175 200 217 170 184 180 158 152 155 156 159 148 142 142 141 133 125 114 99 84 68 52 42 36 32 27 25 29 29 25 13 302 227 210 207 214 224 219 216 219 215
203 143 123 107 212 175 174 176 166 175 163 161 158 152 153 144 144 140 135 125 114 99 84 66 42 30 21 15 14 16 13 14 16 15 1 276 233 224 212 218 226 222 223 228
191 119 140 63 24 87 170 163 164 164 159 154 157 157 153 149 144 140 134 126 117 109 91 49 26 17 6 358 354 356 2 2 1 5 3 354 279 245 234 223 221 232 236 233
185 160 152 197 186 158 190 171 170 162 159 158 154 151 152 153 145 143 136 130 125 115 83 17 1 352 345 339 338 335 339 346 348 347 350 352 346 276 252 243 233 224 229 243